W1DNS-2 Weather Reports


time (UTC)temp
C
wind
direction
speed
KPH
gust
KPH
rain 1hr
cm
rain 24hr
cm
rain mn
cm
humidity
%
barometer
mb
20260504141112 17 0.0 0.0 0.00 0.00 0.00 50
20260504140932 17 0.0 0.0 0.00 0.00 0.00 50
20260504140842 17 0.0 0.0 0.00 0.00 0.00 51
20260504140342 17 0.0 0.0 0.00 0.00 0.00 51
20260504140252 17 0.0 0.0 0.00 0.00 0.00 51
20260504130701 14 0.0 0.0 0.00 0.00 0.00 57
20260504130612 14 0.0 0.0 0.00 0.00 0.00 57
20260504130522 14 0.0 0.0 0.00 0.00 0.00 57
20260504130342 13 0.0 0.0 0.00 0.00 0.00 57
20260504130251 13 0.0 0.0 0.00 0.00 0.00 58
20260504130203 13 0.0 0.0 0.00 0.00 0.00 59
20260504120253 6 0.0 0.0 0.00 0.00 0.00 70
20260504120201 6 0.0 0.0 0.00 0.00 0.00 70
20260504110702 3 0.0 0.0 0.00 0.00 0.00 72
20260504110202 3 0.0 0.0 0.00 0.00 0.00 71
20260504081752 3 0.0 0.0 0.00 0.00 0.00 66
20260504081252 3 0.0 0.0 0.00 0.00 0.00 66
20260504080202 3 0.0 0.0 0.00 0.00 0.00 66
20260504070202 3 0.0 0.0 0.00 0.00 0.00 64
20260504050252 5 0.0 0.0 0.00 0.00 0.00 59
20260504045432 5 0.0 0.0 0.00 0.00 0.00 59
20260504044932 5 0.0 0.0 0.00 0.00 0.00 59
20260504043932 5 0.0 0.0 0.00 0.00 0.00 59
20260504043702 5 0.0 0.0 0.00 0.00 0.00 59
20260504043432 6 0.0 0.0 0.00 0.00 0.00 58
20260504043022 6 0.0 0.0 0.00 0.00 0.00 57
20260504042842 6 0.0 0.0 0.00 0.00 0.00 57
20260504042342 6 0.0 0.0 0.00 0.00 0.00 57
20260504041752 6 0.0 0.0 0.00 0.00 0.00 57
20260504041522 6 0.0 0.0 0.00 0.00 0.00 56
20260504041432 6 0.0 0.0 0.00 0.00 0.00 56
20260504040342 6 0.0 0.0 0.00 0.00 0.00 56
20260504040112 6 0.0 0.0 0.00 0.00 0.00 56
20260504035842 6 0.0 0.0 0.00 0.00 0.00 56
20260504035522 6 0.0 0.0 0.00 0.00 0.00 56
20260504035112 6 0.0 0.0 0.00 0.00 0.00 56
20260504034843 6 0.0 0.0 0.00 0.00 0.00 55
20260504034022 6 0.0 0.0 0.00 0.00 0.00 55
20260504033702 7 0.0 0.0 0.00 0.00 0.00 54
20260504033522 7 0.0 0.0 0.00 0.00 0.00 54
20260504033252 7 0.0 0.0 0.00 0.00 0.00 54
20260504033202 7 0.0 0.0 0.00 0.00 0.00 54
20260504032522 7 0.0 0.0 0.00 0.00 0.00 54
20260504031842 7 0.0 0.0 0.00 0.00 0.00 54
20260504031022 7 0.0 0.0 0.00 0.00 0.00 54
20260504030752 7 0.0 0.0 0.00 0.00 0.00 53
20260504030202 7 0.0 0.0 0.00 0.00 0.00 53
20260504030111 7 0.0 0.0 0.00 0.00 0.00 53
20260504025521 7 0.0 0.0 0.00 0.00 0.00 53
20260504025432 7 0.0 0.0 0.00 0.00 0.00 52
20260504024702 8 0.0 0.0 0.00 0.00 0.00 52
20260504024522 8 0.0 0.0 0.00 0.00 0.00 51
20260504024342 8 0.0 0.0 0.00 0.00 0.00 51
20260504023752 8 0.0 0.0 0.00 0.00 0.00 51
20260504023432 8 0.0 0.0 0.00 0.00 0.00 51
20260504023202 8 0.0 0.0 0.00 0.00 0.00 51
20260504022932 8 0.0 0.0 0.00 0.00 0.00 51
20260504022522 8 0.0 0.0 0.00 0.00 0.00 51
20260504022342 8 0.0 0.0 0.00 0.00 0.00 50
20260504021932 8 0.0 0.0 0.00 0.00 0.00 50
20260504021522 8 0.0 0.0 0.00 0.00 0.00 50
20260504021342 8 0.0 0.0 0.00 0.00 0.00 50
20260504021202 8 0.0 0.0 0.00 0.00 0.00 49
20260504021023 9 0.0 0.0 0.00 0.00 0.00 49
20260504020753 9 0.0 0.0 0.00 0.00 0.00 49
20260504020432 9 0.0 0.0 0.00 0.00 0.00 49
20260504015933 9 0.0 0.0 0.00 0.00 0.00 49
20260504015341 9 0.0 0.0 0.00 0.00 0.00 49
20260504015202 9 0.0 0.0 0.00 0.00 0.00 49
20260504015022 10 0.0 0.0 0.00 0.00 0.00 49
20260504014702 10 0.0 0.0 0.00 0.00 0.00 49
20260504014522 10 0.0 0.0 0.00 0.00 0.00 48
20260504014252 10 0.0 0.0 0.00 0.00 0.00 47
20260504014202 10 0.0 0.0 0.00 0.00 0.00 47
20260504013932 10 0.0 0.0 0.00 0.00 0.00 47
20260504013112 10 0.0 0.0 0.00 0.00 0.00 47
20260504012752 10 0.0 0.0 0.00 0.00 0.00 47
20260504012343 10 0.0 0.0 0.00 0.00 0.00 47
20260504012201 10 0.0 0.0 0.00 0.00 0.00 46
20260504011932 10 0.0 0.0 0.00 0.00 0.00 46
20260504011751 10 0.0 0.0 0.00 0.00 0.00 46
20260504011522 11 0.0 0.0 0.00 0.00 0.00 46
20260504011341 11 0.0 0.0 0.00 0.00 0.00 46
20260504011022 11 0.0 0.0 0.00 0.00 0.00 46
20260504010752 11 0.0 0.0 0.00 0.00 0.00 45
20260504010342 11 0.0 0.0 0.00 0.00 0.00 45
20260504010022 11 0.0 0.0 0.00 0.00 0.00 45
20260504005932 11 0.0 0.0 0.00 0.00 0.00 45
20260504005702 11 0.0 0.0 0.00 0.00 0.00 45
20260504005342 11 0.0 0.0 0.00 0.00 0.00 45
20260504005252 11 0.0 0.0 0.00 0.00 0.00 45
20260504005112 11 0.0 0.0 0.00 0.00 0.00 45
20260504004842 11 0.0 0.0 0.00 0.00 0.00 45
20260504004522 11 0.0 0.0 0.00 0.00 0.00 45
20260504003932 11 0.0 0.0 0.00 0.00 0.00 45
20260504003702 11 0.0 0.0 0.00 0.00 0.00 45
20260504003432 12 0.0 0.0 0.00 0.00 0.00 43
20260504003202 12 0.0 0.0 0.00 0.00 0.00 43
20260504002842 12 0.0 0.0 0.00 0.00 0.00 43
20260504002252 12 0.0 0.0 0.00 0.00 0.00 43
20260504001702 12 0.0 0.0 0.00 0.00 0.00 43
20260504000751 12 0.0 0.0 0.00 0.00 0.00 43
20260504000023 12 0.0 0.0 0.00 0.00 0.00 43
20260503235022 12 0.0 0.0 0.00 0.00 0.00 43
20260503234202 12 0.0 0.0 0.00 0.00 0.00 43
20260503233702 12 0.0 0.0 0.00 0.00 0.00 43
20260503232752 12 0.0 0.0 0.00 0.00 0.00 43
20260503231702 12 0.0 0.0 0.00 0.00 0.00 43
20260503230612 12 0.0 0.0 0.00 0.00 0.00 43
20260503230252 12 0.0 0.0 0.00 0.00 0.00 42
20260503225522 13 0.0 0.0 0.00 0.00 0.00 42
20260503225252 13 0.0 0.0 0.00 0.00 0.00 42
20260503224522 13 0.0 0.0 0.00 0.00 0.00 42
20260503214932 13 0.0 0.0 0.00 0.00 0.00 43
20260503213933 13 0.0 0.0 0.00 0.00 0.00 44
20260503213342 13 0.0 0.0 0.00 0.00 0.00 44
20260503212932 13 0.0 0.0 0.00 0.00 0.00 44
20260503212752 13 0.0 0.0 0.00 0.00 0.00 44
20260503212252 13 0.0 0.0 0.00 0.00 0.00 44
20260503211202 13 0.0 0.0 0.00 0.00 0.00 44
20260503210612 13 0.0 0.0 0.00 0.00 0.00 44
20260503210022 13 0.0 0.0 0.00 0.00 0.00 44
20260503205842 13 0.0 0.0 0.00 0.00 0.00 44
20260503205752 13 0.0 0.0 0.00 0.00 0.00 45
20260503205522 12 0.0 0.0 0.00 0.00 0.00 44
20260503205112 12 0.0 0.0 0.00 0.00 0.00 45
20260503205022 12 0.0 0.0 0.00 0.00 0.00 45
20260503204112 12 0.0 0.0 0.00 0.00 0.00 45
20260503203932 12 0.0 0.0 0.00 0.00 0.00 45
20260503203842 12 0.0 0.0 0.00 0.00 0.00 45
20260503203022 12 0.0 0.0 0.00 0.00 0.00 45
20260503202932 12 0.0 0.0 0.00 0.00 0.00 45
20260503202702 12 0.0 0.0 0.00 0.00 0.00 45
20260503202432 12 0.0 0.0 0.00 0.00 0.00 45
20260503201702 12 0.0 0.0 0.00 0.00 0.00 45
20260503201522 13 0.0 0.0 0.00 0.00 0.00 45
20260503201342 13 0.0 0.0 0.00 0.00 0.00 45
20260503200342 13 0.0 0.0 0.00 0.00 0.00 45
20260503200112 12 0.0 0.0 0.00 0.00 0.00 45
20260503195112 12 0.0 0.0 0.00 0.00 0.00 45
20260503194933 12 0.0 0.0 0.00 0.00 0.00 46
20260503193932 12 0.0 0.0 0.00 0.00 0.00 46
20260503193702 12 0.0 0.0 0.00 0.00 0.00 46
20260503193612 12 0.0 0.0 0.00 0.00 0.00 47
20260503193432 12 0.0 0.0 0.00 0.00 0.00 46
20260503192932 12 0.0 0.0 0.00 0.00 0.00 46
20260503192752 12 0.0 0.0 0.00 0.00 0.00 46
20260503192432 12 0.0 0.0 0.00 0.00 0.00 47
20260503192342 12 0.0 0.0 0.00 0.00 0.00 47
20260503192202 12 0.0 0.0 0.00 0.00 0.00 47
20260503192022 12 0.0 0.0 0.00 0.00 0.00 47
20260503191702 12 0.0 0.0 0.00 0.00 0.00 47
20260503191612 12 0.0 0.0 0.00 0.00 0.00 46
20260503191522 12 0.0 0.0 0.00 0.00 0.00 47
20260503191432 12 0.0 0.0 0.00 0.00 0.00 47
20260503191202 12 0.0 0.0 0.00 0.00 0.00 46
20260503190842 12 0.0 0.0 0.00 0.00 0.00 47
20260503190612 12 0.0 0.0 0.00 0.00 0.00 47
20260503185842 12 0.0 0.0 0.00 0.00 0.00 47
20260503185701 13 0.0 0.0 0.00 0.00 0.00 47
20260503185431 13 0.0 0.0 0.00 0.00 0.00 47
20260503185342 13 0.0 0.0 0.00 0.00 0.00 47
20260503185022 13 0.0 0.0 0.00 0.00 0.00 47
20260503184702 13 0.0 0.0 0.00 0.00 0.00 47
20260503184522 13 0.0 0.0 0.00 0.00 0.00 47
20260503184202 12 0.0 0.0 0.00 0.00 0.00 47
20260503184022 12 0.0 0.0 0.00 0.00 0.00 48
20260503183342 12 0.0 0.0 0.00 0.00 0.00 48
20260503183202 12 0.0 0.0 0.00 0.00 0.00 48
20260503182932 12 0.0 0.0 0.00 0.00 0.00 48
20260503182702 12 0.0 0.0 0.00 0.00 0.00 48
20260503182522 12 0.0 0.0 0.00 0.00 0.00 48
20260503182343 12 0.0 0.0 0.00 0.00 0.00 48
20260503182202 12 0.0 0.0 0.00 0.00 0.00 49
20260503182022 12 0.0 0.0 0.00 0.00 0.00 48
20260503181611 12 0.0 0.0 0.00 0.00 0.00 48
20260503181252 12 0.0 0.0 0.00 0.00 0.00 48
20260503181202 12 0.0 0.0 0.00 0.00 0.00 49
20260503181111 12 0.0 0.0 0.00 0.00 0.00 49
20260503180612 12 0.0 0.0 0.00 0.00 0.00 49
20260503180251 12 0.0 0.0 0.00 0.00 0.00 49
20260503175842 12 0.0 0.0 0.00 0.00 0.00 49
20260503175202 12 0.0 0.0 0.00 0.00 0.00 49
20260503174932 12 0.0 0.0 0.00 0.00 0.00 49
20260503174842 12 0.0 0.0 0.00 0.00 0.00 49
20260503174702 12 0.0 0.0 0.00 0.00 0.00 49
20260503174612 12 0.0 0.0 0.00 0.00 0.00 49
20260503173842 12 0.0 0.0 0.00 0.00 0.00 49
20260503173521 12 0.0 0.0 0.00 0.00 0.00 50
20260503173342 12 0.0 0.0 0.00 0.00 0.00 50
20260503172932 12 0.0 0.0 0.00 0.00 0.00 50
20260503172842 12 0.0 0.0 0.00 0.00 0.00 50
20260503172702 12 0.0 0.0 0.00 0.00 0.00 50
20260503172522 12 0.0 0.0 0.00 0.00 0.00 50
20260503172202 12 0.0 0.0 0.00 0.00 0.00 50
20260503171932 11 0.0 0.0 0.00 0.00 0.00 51
20260503171842 11 0.0 0.0 0.00 0.00 0.00 51
20260503171752 11 0.0 0.0 0.00 0.00 0.00 51
20260503171432 11 0.0 0.0 0.00 0.00 0.00 51
20260503171342 11 0.0 0.0 0.00 0.00 0.00 51
20260503171022 11 0.0 0.0 0.00 0.00 0.00 51
20260503170842 11 0.0 0.0 0.00 0.00 0.00 52
20260503150252 11 0.0 0.0 0.00 0.00 0.00 56